Theta_e
308 307 308 308 308 307 307 307 305 305 306 306 305 304 301 299 303 305 302 301 302 302 302 301 301 301 300 299 299 299 299 299 298 299 299 299 299 299 300 300 299 299 299
307 307 308 309 308 307 307 307 307 305 305 306 305 303 302 298 303 305 303 303 303 303 303 303 303 302 302 301 300 299 299 299 298 299 299 299 299 300 299 300 300 300 299
308 308 309 309 308 308 308 308 308 307 305 305 305 304 303 300 300 304 305 304 304 304 304 303 303 303 303 303 301 300 299 298 298 297 298 299 299 300 299 300 299 299 298
308 308 309 308 308 308 308 307 307 307 305 305 305 304 304 303 301 299 302 303 302 303 302 303 302 302 302 303 303 302 300 300 301 298 298 298 299 300 299 298 298 298 297
310 309 309 308 308 308 308 308 307 308 307 305 305 305 305 304 304 304 301 299 300 300 301 302 302 302 303 303 303 303 303 301 301 300 299 298 299 298 298 297 296 297 296
310 309 309 309 309 308 308 308 308 307 307 305 306 306 305 305 306 305 305 304 303 303 303 304 303 302 303 303 303 303 304 301 300 300 299 298 298 297 297 296 295 296 296
310 309 309 309 310 308 309 307 308 308 307 306 306 307 307 305 304 305 305 306 306 306 305 305 306 305 304 302 303 302 301 302 300 299 299 298 297 297 296 295 295 295 295
311 309 309 310 309 309 309 308 308 308 307 308 308 307 306 306 306 306 306 306 307 307 306 305 304 304 304 302 301 301 301 301 301 299 298 298 297 297 295 295 295 294 294
311 310 310 310 309 309 308 307 307 307 306 307 306 307 307 307 308 309 309 309 308 308 307 306 304 301 301 301 301 301 301 301 300 299 299 298 297 297 296 295 295 294 294
311 310 310 309 309 309 308 306 307 306 306 306 307 307 308 308 309 308 307 306 306 305 304 302 301 302 301 302 301 299 299 299 299 299 299 298 297 297 296 295 294 294 295
312 311 309 309 309 309 306 306 305 306 307 307 307 308 308 308 308 306 305 304 304 303 301 302 301 301 300 299 299 299 299 299 298 298 298 297 297 296 295 295 295 295 295
312 311 310 310 310 306 305 305 306 306 306 307 307 308 308 307 307 305 303 302 301 301 302 301 299 299 298 299 299 299 299 298 298 298 297 297 296 296 296 295 295 295 295
311 311 310 308 305 305 305 306 307 307 307 308 307 307 307 307 306 303 301 301 303 302 302 299 298 298 299 299 298 298 298 298 298 297 297 297 296 296 297 297 297 297 297
311 310 306 305 305 305 306 307 308 308 308 308 307 307 306 306 304 302 302 303 301 301 299 298 298 298 298 298 298 298 298 298 298 297 297 297 297 297 296 297 296 297 296
310 306 305 306 306 307 308 308 308 307 307 306 305 305 305 303 302 301 302 300 300 299 298 297 298 298 298 298 299 298 298 298 298 297 297 297 297 296 296 296 296 296 296
306 305 306 307 308 308 309 309 306 307 305 305 305 304 302 301 302 302 299 299 298 298 297 298 297 297 297 297 297 298 297 298 297 297 297 296 296 296 296 296 296 296 296
306 307 307 307 308 308 309 307 306 302 302 303 302 302 302 303 301 299 298 298 298 297 298 297 296 298 298 298 298 298 297 297 298 297 296 296 296 296 295 295 296 296 297
306 307 307 308 308 307 308 306 305 302 302 301 302 301 300 300 299 298 298 297 297 298 297 296 296 298 298 298 297 297 297 298 298 297 296 296 296 295 295 295 296 296 297
307 307 308 308 308 307 306 306 306 301 301 300 300 300 299 299 298 298 297 297 297 298 296 295 296 298 297 297 297 296 297 298 297 296 296 295 295 295 295 296 296 297 297
308 308 308 308 307 305 305 304 302 301 300 300 300 299 299 298 298 297 297 297 298 296 295 295 296 297 296 296 295 295 296 297 297 295 295 295 295 294 293 295 296 297 299
308 309 308 308 308 306 304 304 302 301 300 300 299 299 298 298 297 297 297 298 297 296 294 294 296 297 296 295 295 295 296 296 295 294 294 295 295 295 295 294 295 296 298
308 308 308 308 307 303 304 303 302 301 300 299 298 298 298 297 297 297 297 297 296 295 294 293 295 295 293 293 294 295 296 296 295 295 296 296 295 295 294 294 294 295 297
308 308 308 308 304 301 302 301 301 300 299 299 298 297 296 296 296 297 297 296 294 294 293 293 294 294 293 292 292 293 295 296 296 294 293 294 294 294 294 294 295 295 297
308 308 307 305 301 301 301 301 301 300 299 298 297 296 296 296 295 295 295 294 293 292 292 292 293 292 292 292 292 293 295 296 296 295 293 292 293 293 293 293 293 293 296
308 306 304 301 300 300 300 300 300 299 298 297 296 296 295 295 294 293 292 291 290 290 290 290 292 292 291 292 292 293 294 296 297 296 293 292 292 292 292 291 292 293 296
306 303 301 300 300 299 299 299 299 298 297 296 296 295 294 294 293 292 291 290 289 288 288 290 290 291 291 291 291 292 294 296 296 294 292 291 291 291 291 290 292 294 296
Wind_Speed
19 19 18 14 11 10 7 3 2 2 3 2 3 5 8 8 3 3 6 6 6 4 5 6 8 8 8 8 10 9 7 6 4 9 17 23 24 24 20 20 20 18 21
21 20 18 14 11 11 8 5 5 3 4 2 1 3 7 8 4 3 2 3 4 7 8 10 12 12 13 12 11 10 9 9 8 12 20 22 24 25 24 24 23 24 25
22 21 18 15 13 11 8 6 6 8 5 4 3 1 4 6 4 1 3 5 7 9 10 12 14 15 18 18 16 16 14 14 14 14 15 20 22 26 30 27 29 29 28
22 23 19 16 15 10 7 5 5 9 8 5 5 3 3 4 5 4 6 8 10 11 12 13 12 15 17 19 19 19 17 17 22 20 19 17 19 24 26 24 23 23 23
23 23 20 16 13 10 8 4 6 7 9 8 6 6 6 7 7 7 8 10 12 14 14 14 14 13 15 16 15 19 19 18 19 17 17 12 13 15 19 22 22 23 21
24 24 20 16 13 12 9 7 5 6 7 9 6 7 9 10 10 11 13 15 15 16 19 21 19 17 18 17 18 16 17 17 15 12 12 11 12 15 18 17 20 18 6
24 23 21 17 15 13 11 9 8 6 6 8 8 9 11 12 11 13 15 19 22 23 24 24 22 23 22 20 18 17 18 20 16 14 14 12 13 20 19 18 18 17 17
24 23 20 16 16 12 12 11 9 8 7 8 8 9 12 14 15 18 20 23 25 25 26 26 22 19 19 15 15 17 16 18 14 13 10 16 21 23 18 18 20 17 17
25 22 19 18 16 12 12 10 9 8 8 8 8 11 14 18 20 22 20 19 17 15 17 16 13 14 13 12 15 14 18 20 18 9 13 22 20 15 14 15 13 14 12
26 22 19 16 15 12 10 10 8 7 6 7 11 13 17 21 20 14 12 14 12 12 13 11 10 10 11 12 14 16 18 16 13 19 26 23 18 18 14 11 14 14 12
24 19 18 17 13 10 9 8 6 6 7 10 14 17 18 18 15 12 9 9 10 11 10 10 11 11 13 16 16 15 13 12 17 26 21 20 18 18 17 16 14 15 15
24 19 18 15 13 10 8 5 5 7 10 14 18 21 23 19 16 11 6 7 7 8 8 8 8 12 15 15 14 15 14 19 21 19 18 18 18 16 18 15 15 15 15
23 19 15 15 14 11 7 5 8 9 12 17 20 24 27 21 11 5 5 5 7 7 6 7 9 14 14 14 17 17 19 17 18 16 16 18 18 18 19 19 17 16 16
22 19 18 14 13 8 6 7 9 12 15 20 22 20 17 10 4 2 3 4 5 4 6 10 13 14 16 20 20 18 14 15 16 16 17 20 22 22 20 19 20 18 18
21 21 16 12 9 6 6 6 10 11 11 15 14 8 7 8 5 4 4 6 7 7 9 14 17 22 22 18 18 17 16 17 18 19 19 21 22 22 22 20 19 19 13
23 20 14 9 6 4 5 7 5 7 6 6 6 6 6 7 5 5 6 7 8 8 12 14 16 18 15 18 16 19 14 18 19 20 21 19 20 21 21 22 18 16 14
22 17 13 8 5 7 6 5 2 4 5 6 7 8 8 8 9 8 8 8 10 10 12 15 15 17 15 17 18 17 18 21 21 22 19 19 21 21 20 19 18 17 14
20 15 12 6 4 4 3 6 3 10 6 10 11 11 11 10 9 8 7 9 12 10 12 15 16 17 16 18 19 19 20 20 22 24 21 20 20 20 20 18 19 15 16
16 13 8 3 4 4 4 3 7 11 10 14 13 12 11 9 8 9 10 10 9 8 14 18 19 17 14 18 19 20 18 22 22 25 24 22 20 19 20 18 18 19 17
12 9 8 3 1 3 3 10 14 12 14 13 11 9 6 4 8 8 8 8 7 10 15 19 20 18 15 17 17 18 22 23 24 26 25 24 23 20 19 19 19 17 18
11 9 6 1 5 5 9 12 11 13 16 12 10 8 7 6 6 6 7 6 7 11 16 18 19 18 18 19 20 23 25 24 25 25 26 26 25 24 23 20 19 17 16
10 7 4 2 8 9 11 11 14 16 15 13 11 8 5 6 6 7 6 4 8 12 16 17 17 17 18 19 20 22 23 26 26 26 27 27 27 25 22 20 20 20 19
9 5 4 7 11 11 11 13 15 15 14 12 9 6 5 5 6 6 6 6 10 14 16 16 16 17 18 20 20 20 22 24 25 24 26 26 27 24 23 21 21 22 21
9 6 9 15 15 14 14 15 14 13 13 11 7 5 4 6 7 7 6 10 13 15 15 15 16 16 18 19 21 22 21 21 23 25 25 24 24 23 21 21 22 21 19
11 9 17 19 17 15 15 15 15 13 12 9 6 4 5 5 7 9 11 13 14 15 16 16 17 18 19 20 20 21 22 22 23 24 25 23 23 22 21 21 20 19 18
13 17 18 18 18 17 16 16 14 13 11 7 5 5 5 6 9 11 14 14 15 16 16 17 18 18 19 21 22 22 22 23 23 23 24 22 24 21 21 20 19 16 15
Wind_Direction
175 173 170 165 166 169 167 162 114 155 134 130 39 26 28 23 55 79 95 83 60 46 16 357 350 342 338 351 3 0 351 328 265 310 321 332 335 336 331 331 331 323 325
176 174 174 177 179 184 190 202 219 222 219 199 294 16 30 28 57 71 89 14 1 356 342 330 323 318 314 314 312 325 328 317 302 304 321 323 326 334 334 325 327 328 326
179 179 183 185 188 193 204 229 245 220 219 229 215 337 20 23 41 350 331 330 327 324 327 330 332 328 317 305 304 305 317 325 316 294 298 313 319 325 331 329 326 323 323
183 187 189 190 191 200 224 232 229 210 219 233 230 251 305 338 0 335 312 310 319 325 326 331 333 337 333 326 303 296 298 318 327 309 303 307 318 325 327 322 319 319 317
187 191 192 192 199 216 219 223 204 218 234 237 236 255 275 291 303 312 314 309 315 322 319 318 319 323 334 332 318 309 296 299 306 309 299 301 312 318 320 321 314 313 313
190 194 192 197 204 210 214 214 226 240 235 230 246 272 279 282 291 293 299 303 304 307 311 311 316 316 315 318 314 305 290 301 293 288 296 295 301 313 315 315 315 313 321
190 194 195 200 207 212 218 217 230 238 246 238 257 285 290 287 292 294 295 293 294 294 294 298 310 314 313 308 306 300 309 313 307 288 283 298 309 317 313 309 313 310 306
191 194 198 204 203 214 219 225 239 237 260 250 274 286 295 299 300 299 301 300 298 295 296 303 307 310 318 318 319 316 321 329 326 303 297 319 318 317 304 307 309 308 307
191 193 199 199 202 216 206 222 229 245 267 264 279 296 301 308 312 310 309 304 306 310 313 326 332 330 337 323 319 317 323 323 326 321 319 325 328 327 318 315 312 311 306
188 192 196 197 203 208 222 226 230 263 267 277 292 301 308 311 314 313 305 304 304 318 326 345 3 350 342 336 335 331 326 330 341 335 329 330 336 339 330 315 313 299 299
184 186 189 195 207 220 223 217 244 257 281 296 302 307 311 320 316 306 307 319 327 332 338 354 5 2 356 346 340 343 348 349 336 331 337 339 331 336 331 331 322 309 292
181 185 192 205 205 197 202 224 255 280 297 304 307 312 317 326 313 302 321 341 341 338 348 2 11 358 353 353 2 4 354 336 333 341 339 328 327 325 332 326 322 311 304
179 187 194 190 188 190 218 260 286 302 305 306 307 309 315 325 315 295 333 345 344 343 355 12 6 357 360 0 354 345 334 341 339 336 327 324 330 332 336 337 334 336 327
177 184 183 183 185 206 236 274 300 307 308 305 306 316 331 346 4 20 8 355 347 8 33 16 5 5 356 344 338 341 345 344 343 334 326 334 336 336 335 342 332 334 322
175 176 177 173 186 219 261 285 304 313 302 304 308 326 12 47 68 58 35 32 39 39 17 12 8 356 349 351 354 352 353 355 344 339 334 333 335 337 336 342 338 328 301
170 174 173 180 200 235 287 305 333 315 330 9 45 73 73 82 86 79 71 60 41 24 27 19 0 354 354 356 347 345 346 346 346 343 342 342 337 335 333 342 344 329 311
170 170 168 183 223 270 275 297 344 93 93 72 71 87 98 96 94 85 69 49 40 27 34 8 356 355 1 356 351 346 339 347 349 344 342 340 339 335 333 332 333 326 322
169 172 179 207 218 198 271 300 253 166 116 94 96 106 102 95 90 70 47 27 23 29 21 3 353 351 352 354 351 348 352 356 357 355 350 346 344 337 330 327 331 320 321
163 166 179 164 200 219 285 309 157 154 132 123 118 112 104 95 77 56 37 30 21 34 10 2 358 354 350 355 352 351 348 352 352 354 351 345 342 336 331 333 326 328 320
152 164 170 168 184 217 188 143 143 141 142 132 127 110 96 68 45 37 21 12 45 22 7 1 359 360 355 353 349 346 351 351 350 350 348 349 345 338 329 322 320 319 318
135 142 154 204 228 202 164 155 145 139 138 133 112 90 60 48 41 22 14 41 35 12 2 358 358 2 2 0 358 358 357 353 350 347 345 346 345 340 336 327 315 315 308
151 149 172 276 186 166 163 156 146 137 131 124 112 91 58 46 39 31 32 62 18 1 355 352 353 2 5 3 359 358 358 357 354 348 344 342 341 340 337 328 324 321 314
154 168 264 191 172 163 152 150 146 137 132 124 115 98 69 39 30 33 46 15 356 350 349 350 352 355 360 359 0 358 355 354 351 349 345 343 340 337 337 328 325 322 322
175 208 191 165 154 150 145 144 145 141 136 130 120 102 62 49 43 36 5 346 342 343 346 348 352 354 354 354 356 356 353 349 347 350 349 341 337 338 336 329 326 326 324
195 178 163 155 150 146 145 144 148 147 142 134 118 91 67 44 25 7 354 350 349 349 349 349 349 350 350 349 350 350 348 347 348 346 345 343 343 342 339 335 335 336 339
184 164 155 150 144 138 141 146 151 150 144 131 108 86 53 23 6 356 351 349 349 350 352 352 350 347 346 347 348 347 348 349 348 347 346 349 349 344 344 342 341 343 348